Weather History for KIND - October, 2013

Change the Weather History Date:

Sunday, October 27, 2013

  Actual Average Record
Temperature  
Mean Temperature 43 °F 52 °F  
Max Temperature 56 °F 61 °F 83 °F (1940)
Min Temperature 30 °F 42 °F 24 °F (1976)
Degree Days  
Heating Degree Days 22 14  
Month to date heating degree days 293 268  
Since 1 July heating degree days 327 343  
Cooling Degree Days 0 0  
Month to date cooling degree days 31 13  
Year to date cooling degree days 1160 1062  
Moisture  
Dew Point 30 °F    
Average Humidity 64    
Maximum Humidity 92    
Minimum Humidity 35    
Precipitation  
Precipitation 0.00 in 0.10 in 1.71 in (2006)
Month to date precipitation 3.19 2.71  
Year to date precipitation 35.98 35.16  
Snow  
Snow 0.00 in 0.00 in T in (2008)
Month to date snowfall T 0.3  
Since 1 July snowfall T 0.3  
Since 1 September snowfall T 0.3  
Snow Depth 0.00 in    
Sea Level Pressure  
Sea Level Pressure 30.08 in    
Wind  
Wind Speed 3 mph (SW)    
Max Wind Speed 12 mph    
Max Gust Speed 21 mph    
Visibility 10 miles    
Events      
T = Trace of Precipitation, MM = Missing Value Source: NWS Daily Summary

Daily Weather History Graph

Daily Weather History Graph

Search for Another Location

Airport or City:

Trip Planner

Search our weather history database for the weather conditions in past years. The results will help you decide how hot, cold, wet, or windy it might be!

Date:

Astronomy

Oct. 27, 2013 Rise Set
Actual Time 8:08 AM EDT 6:49 PM EDT
Civil Twilight 7:40 AM EDT 7:16 PM EDT
Nautical Twilight 7:09 AM EDT 7:48 PM EDT
Astronomical Twilight 6:37 AM EDT 8:19 PM EDT
Moon 1:06 AM EDT (10/27) 2:56 PM EDT (10/27)
Length of Visible Light 11h 35m
Length of Day
10h 40m
Last Quarter, 44% of the Moon is Illuminated
Oct 27
Last Quarter
Nov 3
New
Nov 10
First Quarter
Nov 17
Full
Nov 25
Last Quarter

Hourly Weather History & Observations

Time (EDT) Temp. Windchill Dew Point Humidity Pressure Visibility Wind Dir Wind Speed Gust Speed Precip Events Conditions
12:54 AM 37.0 °F 31.6 °F 30.0 °F 76% 30.09 in 10.0 mi NW 6.9 mph - N/A   Partly Cloudy
1:54 AM 37.9 °F - 30.0 °F 73% 30.07 in 10.0 mi Calm Calm - N/A   Partly Cloudy
2:54 AM 33.1 °F 28.7 °F 28.0 °F 82% 30.06 in 10.0 mi SW 4.6 mph - N/A   Partly Cloudy
3:54 AM 34.0 °F 29.8 °F 28.9 °F 82% 30.06 in 10.0 mi West 4.6 mph - N/A   Scattered Clouds
4:54 AM 34.0 °F - 28.9 °F 82% 30.06 in 10.0 mi Calm Calm - N/A   Scattered Clouds
5:54 AM 34.0 °F - 28.9 °F 82% 30.07 in 10.0 mi Calm Calm - N/A   Scattered Clouds
6:54 AM 30.9 °F 27.5 °F 28.0 °F 89% 30.07 in 10.0 mi West 3.5 mph - N/A   Scattered Clouds
7:54 AM 30.9 °F 26.2 °F 28.0 °F 89% 30.09 in 10.0 mi WSW 4.6 mph - N/A   Scattered Clouds
8:54 AM 32.0 °F - 28.0 °F 85% 30.10 in 10.0 mi Calm Calm - N/A   Mostly Cloudy
9:54 AM 39.0 °F - 33.1 °F 79% 30.12 in 10.0 mi Calm Calm - N/A   Mostly Cloudy
10:54 AM 45.0 °F 43.5 °F 34.0 °F 65% 30.12 in 10.0 mi South 3.5 mph - N/A   Mostly Cloudy
11:54 AM 50.0 °F - 35.1 °F 57% 30.11 in 10.0 mi Variable 4.6 mph - N/A   Mostly Cloudy
12:54 PM 52.0 °F - 32.0 °F 47% 30.10 in 10.0 mi SW 9.2 mph - N/A   Scattered Clouds
1:54 PM 53.1 °F - 30.0 °F 41% 30.08 in 10.0 mi SE 5.8 mph - N/A   Scattered Clouds
2:54 PM 54.0 °F - 28.9 °F 38% 30.06 in 10.0 mi SW 6.9 mph - N/A   Mostly Cloudy
3:54 PM 55.0 °F - 28.9 °F 37% 30.05 in 10.0 mi Variable 3.5 mph - N/A   Scattered Clouds
4:54 PM 55.0 °F - 30.0 °F 38% 30.05 in 10.0 mi SW 8.1 mph - N/A   Scattered Clouds
5:54 PM 53.1 °F - 30.9 °F 43% 30.05 in 10.0 mi SW 6.9 mph - N/A   Partly Cloudy
6:54 PM 48.0 °F - 30.0 °F 50% 30.05 in 10.0 mi WSW 5.8 mph - N/A   Partly Cloudy
7:54 PM 48.9 °F - 28.9 °F 46% 30.06 in 10.0 mi SSW 5.8 mph - N/A   Partly Cloudy
8:54 PM 46.0 °F 44.8 °F 30.0 °F 54% 30.06 in 10.0 mi WSW 3.5 mph - N/A   Partly Cloudy
9:54 PM 43.0 °F - 30.9 °F 62% 30.07 in 10.0 mi Calm Calm - N/A   Clear
10:54 PM 42.1 °F - 32.0 °F 67% 30.08 in 10.0 mi Calm Calm - N/A   Clear
11:54 PM 41.0 °F - 32.0 °F 70% 30.08 in 10.0 mi Calm Calm - N/A   Clear